Weather History for KFOT - November, 2012

Change the Weather History Date:

Monday, November 19, 2012

  Actual Average (KEKA) Record (KEKA)
Temperature  
Mean Temperature 55 °F 50 °F  
Max Temperature 59 °F 57 °F 78 °F (1987)
Min Temperature 51 °F 43 °F 29 °F (1994)
Degree Days  
Heating Degree Days 10 15  
Month to date heating degree days 255  
Since 1 July heating degree days 1249  
Cooling Degree Days 0 0  
Month to date cooling degree days 0  
Year to date cooling degree days 0  
Growing Degree Days 5 (Base 50)    
Moisture  
Dew Point 54 °F    
Average Humidity 96    
Maximum Humidity 100    
Minimum Humidity 82    
Precipitation  
Precipitation 0.16 in 0.20 in 3.27 in (1924)
Month to date precipitation 3.17  
Year to date precipitation 29.77  
Since 1 July precipitation 6.49  
Snow  
Snow - 0.00 in 0.00 in (2002)
Month to date snowfall 0.0  
Since 1 July snowfall 0.0  
Since 1 September snowfall 0.0  
Snow Depth -    
Sea Level Pressure  
Sea Level Pressure 29.98 in    
Wind  
Wind Speed 22 mph ()    
Max Wind Speed 29 mph    
Max Gust Speed 41 mph    
Visibility 7.3 miles    
Events      
T = Trace of Precipitation, MM = Missing Value Source: Averaged Metar Reports

Daily Weather History Graph

Daily Weather History Graph

Search for Another Location

Airport or City:

Trip Planner

Search our weather history database for the weather conditions in past years. The results will help you decide how hot, cold, wet, or windy it might be!

Date:

Astronomy

Nov. 19, 2012 Rise Set
Actual Time 7:08 AM PST 4:55 PM PST
Civil Twilight 6:38 AM PST 5:25 PM PST
Nautical Twilight 6:05 AM PST 5:58 PM PST
Astronomical Twilight 5:32 AM PST 6:30 PM PST
Moon 12:13 PM PST (11/19) 11:29 PM PST (11/19)
Length of Visible Light 10h 46m
Length of Day
9h 47m
Waxing Crescent, 42% of the Moon is Illuminated
Nov 19
Waxing Crescent
Nov 20
First Quarter
Nov 28
Full
Dec 6
Last Quarter
Dec 13
New

Hourly Weather History & Observations

Time (PST) Temp. Dew Point Humidity Pressure Visibility Wind Dir Wind Speed Gust Speed Precip Events Conditions
12:35 AM 51.8 °F 48.2 °F 88% 30.03 in 10.0 mi ESE 20.7 mph 32.2 mph N/A   Mostly Cloudy
12:55 AM 53.6 °F 48.2 °F 82% 30.02 in 10.0 mi SE 21.9 mph 31.1 mph N/A   Overcast
1:15 AM 53.6 °F 48.2 °F 82% 30.02 in 10.0 mi SE 20.7 mph 27.6 mph N/A   Overcast
1:35 AM 53.6 °F 50.0 °F 88% 30.02 in 10.0 mi SE 20.7 mph - N/A   Overcast
1:55 AM 53.6 °F 50.0 °F 88% 30.00 in 10.0 mi SE 24.2 mph 28.8 mph N/A   Mostly Cloudy
2:15 AM 53.6 °F 50.0 °F 88% 30.01 in 10.0 mi SE 19.6 mph 27.6 mph N/A   Mostly Cloudy
2:35 AM 53.6 °F 50.0 °F 88% 30.02 in 10.0 mi SE 20.7 mph 26.5 mph N/A   Overcast
2:55 AM 51.8 °F 50.0 °F 94% 30.02 in 8.0 mi SE 24.2 mph 31.1 mph N/A   Mostly Cloudy
3:15 AM 51.8 °F 50.0 °F 94% 30.00 in 7.0 mi ESE 25.3 mph - 0.01 in   Overcast
3:35 AM 51.8 °F 50.0 °F 94% 29.99 in 10.0 mi SE 23.0 mph 31.1 mph 0.01 in   Mostly Cloudy
3:55 AM 53.6 °F 50.0 °F 88% 30.00 in 10.0 mi SE 21.9 mph 27.6 mph 0.01 in   Mostly Cloudy
4:15 AM 53.6 °F 51.8 °F 94% 29.98 in 5.0 mi SE 24.2 mph 31.1 mph N/A   Overcast
4:35 AM 53.6 °F 51.8 °F 94% 29.97 in 9.0 mi SE 27.6 mph 33.4 mph N/A   Overcast
4:55 AM 53.6 °F 51.8 °F 94% 29.97 in 10.0 mi SE 26.5 mph - N/A   Scattered Clouds
5:35 AM 53.6 °F 51.8 °F 94% 29.99 in 9.0 mi SE 24.2 mph 29.9 mph N/A   Overcast
5:55 AM 53.6 °F 51.8 °F 94% 29.99 in 8.0 mi SE 21.9 mph - N/A   Overcast
6:15 AM 53.6 °F 53.6 °F 100% 29.98 in 7.0 mi SE 25.3 mph 33.4 mph N/A   Overcast
6:35 AM 53.6 °F 53.6 °F 100% 29.99 in 10.0 mi SE 23.0 mph 27.6 mph N/A   Overcast
6:55 AM 53.6 °F 53.6 °F 100% 30.00 in 5.0 mi SE 24.2 mph 28.8 mph N/A   Overcast
7:15 AM 53.6 °F 53.6 °F 100% 29.99 in 5.0 mi ESE 25.3 mph 31.1 mph 0.01 in   Overcast
7:35 AM 53.6 °F 53.6 °F 100% 29.99 in 5.0 mi SE 21.9 mph 31.1 mph 0.01 in   Overcast
7:55 AM 53.6 °F 53.6 °F 100% 30.00 in 3.0 mi ESE 25.3 mph - 0.02 in   Overcast
8:15 AM 53.6 °F 53.6 °F 100% 30.00 in 8.0 mi ESE 27.6 mph 32.2 mph N/A   Overcast
8:35 AM 55.4 °F 53.6 °F 94% 30.00 in 6.0 mi SE 25.3 mph 33.4 mph 0.01 in   Overcast
8:55 AM 55.4 °F 53.6 °F 94% 30.00 in 9.0 mi SE 21.9 mph 31.1 mph 0.01 in   Overcast
9:15 AM 55.4 °F 53.6 °F 94% 30.01 in 7.0 mi SE 24.2 mph 29.9 mph N/A   Overcast
9:35 AM 55.4 °F 55.4 °F 100% 30.01 in 4.0 mi SE 27.6 mph 33.4 mph N/A   Mostly Cloudy
10:15 AM 55.4 °F 55.4 °F 100% 30.02 in 4.0 mi SE 23.0 mph 29.9 mph 0.01 in   Partly Cloudy
10:35 AM 55.4 °F 55.4 °F 100% 30.02 in 5.0 mi ESE 25.3 mph - 0.02 in   Scattered Clouds
10:55 AM 55.4 °F 55.4 °F 100% 30.02 in 3.0 mi SE 23.0 mph 28.8 mph 0.03 in   Scattered Clouds
11:15 AM 55.4 °F 55.4 °F 100% 30.02 in 4.0 mi SE 25.3 mph 29.9 mph 0.01 in   Mostly Cloudy
11:35 AM 55.4 °F 55.4 °F 100% 30.01 in 4.0 mi SE 27.6 mph - 0.02 in   Mostly Cloudy
11:55 AM 55.4 °F 55.4 °F 100% 29.99 in 2.5 mi SE 25.3 mph 32.2 mph 0.02 in   Mostly Cloudy
12:15 PM 55.4 °F 55.4 °F 100% 29.99 in 4.0 mi SE 21.9 mph 35.7 mph N/A   Mostly Cloudy
12:35 PM 55.4 °F 55.4 °F 100% 29.98 in 3.0 mi SE 21.9 mph 33.4 mph N/A   Overcast
12:55 PM 55.4 °F 55.4 °F 100% 29.99 in 10.0 mi SSE 15.0 mph 24.2 mph N/A   Overcast
1:15 PM 55.4 °F 55.4 °F 100% 29.97 in 10.0 mi ESE 25.3 mph 32.2 mph N/A   Overcast
1:35 PM 57.2 °F 55.4 °F 94% 29.98 in 8.0 mi SE 21.9 mph 32.2 mph N/A   Overcast
1:55 PM 57.2 °F 55.4 °F 94% 29.96 in 10.0 mi SE 24.2 mph 29.9 mph 0.01 in   Overcast
2:15 PM 57.2 °F 55.4 °F 94% 29.96 in 9.0 mi SE 26.5 mph 31.1 mph N/A   Overcast
2:35 PM 57.2 °F 55.4 °F 94% 29.96 in 6.0 mi SE 25.3 mph 35.7 mph N/A   Overcast
2:55 PM 57.2 °F 55.4 °F 94% 29.95 in 10.0 mi SE 28.8 mph 41.4 mph N/A   Overcast
3:15 PM 57.2 °F 53.6 °F 88% 29.95 in 10.0 mi SE 27.6 mph 35.7 mph N/A   Overcast
3:35 PM 55.4 °F 55.4 °F 100% 29.95 in 7.0 mi SE 26.5 mph 33.4 mph N/A   Overcast
3:55 PM 55.4 °F 55.4 °F 100% 29.96 in 6.0 mi ESE 25.3 mph 35.7 mph N/A   Overcast
4:15 PM 55.4 °F 55.4 °F 100% 29.95 in 4.0 mi ESE 26.5 mph 33.4 mph N/A   Overcast
4:35 PM 55.4 °F 55.4 °F 100% 29.95 in 4.0 mi ESE 26.5 mph 35.7 mph N/A   Overcast
4:55 PM 55.4 °F 55.4 °F 100% 29.94 in 4.0 mi ESE 28.8 mph 34.5 mph N/A   Overcast
5:15 PM 55.4 °F 55.4 °F 100% 29.94 in 10.0 mi SE 23.0 mph 33.4 mph N/A   Overcast
5:35 PM 57.2 °F 55.4 °F 94% 29.94 in 9.0 mi ESE 27.6 mph 34.5 mph N/A   Overcast
5:55 PM 57.2 °F 55.4 °F 94% 29.94 in 7.0 mi SE 26.5 mph 32.2 mph 0.01 in   Overcast
6:15 PM 57.2 °F 55.4 °F 94% 29.94 in 6.0 mi ESE 24.2 mph 31.1 mph 0.01 in   Overcast
6:35 PM 57.2 °F 57.2 °F 100% 29.95 in 4.0 mi ESE 21.9 mph - 0.01 in   Overcast
6:55 PM 57.2 °F 57.2 °F 100% 29.95 in 5.0 mi ESE 23.0 mph - 0.02 in   Overcast
7:15 PM 57.2 °F 57.2 °F 100% 29.94 in 5.0 mi ESE 23.0 mph 27.6 mph N/A   Overcast
7:35 PM 57.2 °F 57.2 °F 100% 29.94 in 7.0 mi SE 20.7 mph 31.1 mph 0.01 in   Overcast
7:55 PM 57.2 °F 57.2 °F 100% 29.95 in 8.0 mi ESE 23.0 mph 29.9 mph 0.01 in   Overcast
8:15 PM 57.2 °F 57.2 °F 100% 29.95 in 7.0 mi SE 17.3 mph 28.8 mph N/A   Overcast
8:35 PM 57.2 °F 57.2 °F 100% 29.95 in 5.0 mi ESE 20.7 mph 25.3 mph N/A   Overcast
8:55 PM 57.2 °F 57.2 °F 100% 29.95 in 7.0 mi SE 21.9 mph 26.5 mph 0.01 in   Overcast
9:15 PM 57.2 °F 57.2 °F 100% 29.94 in 8.0 mi SE 18.4 mph 26.5 mph N/A   Overcast
9:35 PM 57.2 °F 57.2 °F 100% 29.94 in 9.0 mi SE 18.4 mph 26.5 mph 0.01 in   Overcast
9:55 PM 59.0 °F 57.2 °F 94% 29.95 in 10.0 mi SE 18.4 mph 25.3 mph 0.01 in   Overcast
10:15 PM 59.0 °F 57.2 °F 94% 29.95 in 8.0 mi ESE 20.7 mph 27.6 mph N/A   Overcast
10:35 PM 57.2 °F 57.2 °F 100% 29.95 in 8.0 mi ESE 20.7 mph - N/A   Overcast
10:55 PM 59.0 °F 57.2 °F 94% 29.94 in 10.0 mi ESE 21.9 mph 27.6 mph N/A   Overcast
11:15 PM 59.0 °F 57.2 °F 94% 29.93 in 10.0 mi ESE 19.6 mph 26.5 mph N/A   Overcast
11:35 PM 59.0 °F 57.2 °F 94% 29.93 in 10.0 mi ESE 24.2 mph 32.2 mph N/A   Overcast
11:55 PM 59.0 °F 57.2 °F 94% 29.93 in 10.0 mi SE 24.2 mph 27.6 mph N/A   Overcast